Airfield :
LOGIN :

Register | Disclaimer

   EN    FR    IT 

 










Legend :    VFR   Marginal VFR   IFR   Intensive IFR   Very Intensive IFR
Visi :
Ceiling :
>= 8 km
>= 3000ft
5 to 8 km
1000 to 3000 ft
1500m to 5 km
500 to 1000 ft
800 to 1500m
200 to 500 ft
< 800m
< 200 ft
Symbols :   Thunderstorms  Fog  Heavy snow  Heavy precipitations  Wind > 20 kt
SIGMETs :     Misc.  Thunderstorms  Icing  Turbulence  Mountain Waves  Volcanic Ashes







- Airport Elevation : 19 ft
- IATA code : LCY
- Download approach charts


EGLC - London City

CURRENT METAR :
  • 251850Z AUTO 06006KT 340V090 9999 BKN012 20/17 Q1021

EXPIRED METARs :
  • 251820Z AUTO 04004KT 330V110 9999 SCT014 21/17 Q1021
  • 251750Z AUTO 34005KT 280V030 9999 FEW015 21/18 Q1020
  • 251720Z AUTO 35007KT 300V030 9999 FEW045 21/18 Q1020
  • 251650Z AUTO 34008KT 310V060 9999 FEW033 22/18 Q1020
  • 251620Z AUTO 35007KT 310V030 9999 BKN029 22/18 Q1019

TAF AMD TAF EGLC
Valid from the 25 at 18:00 until the 25 at 21:00 UTC


251853Z 2518/2521 01006KT 9999 SCT030
TEMPO 2518/2521 BKN012
ATIS : +44 20 7646 0224
No reported NOTAMs for that airfield.



MET'MAP, your aeronautical weather chart ! - Copyright ORBIFLY December 2007 - Disclaimer

ORBIFLY MET'MAP TEAM :

Programming & Development : Alexandra Zaïnal
Concept & Development : Baudouin d'Aumeries
Co-Development & Prog : Marc-Olivier Méhu
Technical & hardware support : Manuel Goepfert

Contact : metmap@orbifly.com




SOURCES & CREDITS :

   NOAA